SP3ZBZ-13 Weather Reports


Display with metric or nautical units.
time (UTC)temp
F
wind
direction
speed
MPH
gust
MPH
rain 1hr
in
rain 24hr
in
rain mn
in
humidity
%
barometer
mb
20260502194442 64 192 2.0 2.0 0.00 0.00 0.00 46 1013.2
20260502192941 65 174 2.0 2.0 0.00 0.00 0.00 45 1013.2
20260502191440 66 180 1.0 2.0 0.00 0.00 0.00 42 1013.2
20260502185939 67 162 2.0 2.0 0.00 0.00 0.00 41 1013.1
20260502184438 67 168 2.0 2.0 0.00 0.00 0.00 40 1013.2
20260502182937 69 180 2.0 3.0 0.00 0.00 0.00 37 1013.1
20260502181436 71 198 2.0 3.0 0.00 0.00 0.00 35 1013.1
20260502162930 77 114 4.0 9.0 0.00 0.00 0.00 29 1013.6
20260502161429 77 175 4.0 10.0 0.00 0.00 0.00 28 1013.8
20260502151425 78 167 4.0 10.0 0.00 0.00 0.00 28 1014.6
20260502122916 76 250 5.0 10.0 0.00 0.00 0.00 26 1016.6
20260502121414 77 217 4.0 10.0 0.00 0.00 0.00 24 1016.7
20260502115913 76 180 5.0 11.0 0.00 0.00 0.00 25 1016.8
20260502114412 77 210 5.0 10.0 0.00 0.00 0.00 25 1017.1
20260502112911 76 222 3.0 6.0 0.00 0.00 0.00 25 1017.4
20260502111410 76 12 4.0 10.0 0.00 0.00 0.00 25 1017.5
20260502105910 74 228 6.0 11.0 0.00 0.00 0.00 27 1017.7
20260502104409 74 246 4.0 11.0 0.00 0.00 0.00 28 1017.9
20260502102908 74 240 5.0 13.0 0.00 0.00 0.00 26 1018.1
20260502101407 74 211 4.0 9.0 0.00 0.00 0.00 25 1018.1
20260502091403 72 288 4.0 8.0 0.00 0.00 0.00 30 1018.8
20260502071356 66 42 1.0 2.0 0.00 0.00 0.00 37 1019.7
20260502065854 64 278 2.0 3.0 0.00 0.00 0.00 43 1019.7
20260502064353 61 342 3.0 4.0 0.00 0.00 0.00 49 1019.8
20260502062853 59 329 2.0 4.0 0.00 0.00 0.00 55 1019.9
20260502061352 57 340 2.0 3.0 0.00 0.00 0.00 59 1019.9
20260502055851 58 348 0.0 2.0 0.00 0.00 0.00 57 1019.9
20260502054350 55 295 0.0 2.0 0.00 0.00 0.00 60 1019.9
20260502052849 53 336 0.0 2.0 0.00 0.00 0.00 61 1019.9
20260502051348 51 258 0.0 0.0 0.00 0.00 0.00 63 1019.9
20260502045847 47 258 0.0 0.0 0.00 0.00 0.00 70 1020.1
20260502044346 46 268 0.0 1.0 0.00 0.00 0.00 73 1020.2
20260502042845 45 264 0.0 0.0 0.00 0.00 0.00 74 1020.1
20260502041344 43 254 1.0 2.0 0.00 0.00 0.00 76 1020.0
20260502035843 43 252 0.0 2.0 0.00 0.00 0.00 76 1020.0
20260502034342 42 216 0.0 2.0 0.00 0.00 0.00 79 1020.1
20260502032841 42 252 0.0 2.0 0.00 0.00 0.00 79 1020.2
20260502031340 42 240 0.0 2.0 0.00 0.00 0.00 79 1020.2
20260502025840 42 210 1.0 2.0 0.00 0.00 0.00 78 1020.3
20260502024339 43 234 1.0 2.0 0.00 0.00 0.00 76 1020.3
20260502022838 43 228 2.0 3.0 0.00 0.00 0.00 75 1020.3
20260502021337 43 240 2.0 3.0 0.00 0.00 0.00 76 1020.4
20260502015836 44 228 1.0 2.0 0.00 0.00 0.00 76 1020.4
20260502014336 44 228 2.0 3.0 0.00 0.00 0.00 74 1020.4
20260502012834 45 228 2.0 3.0 0.00 0.00 0.00 73 1020.4
20260502011334 45 234 1.0 2.0 0.00 0.00 0.00 73 1020.6
20260502005834 46 240 2.0 3.0 0.00 0.00 0.00 72 1020.7
20260502004332 46 258 2.0 2.0 0.00 0.00 0.00 71 1020.7
20260502002831 46 240 2.0 3.0 0.00 0.00 0.00 73 1020.7
20260502001330 46 246 2.0 3.0 0.00 0.00 0.00 73 1020.9
20260501235829 47 252 1.0 2.0 0.00 0.00 0.00 71 1020.9
20260501234329 48 234 2.0 3.0 0.00 0.00 0.00 73 1021.0
20260501232828 48 240 1.0 2.0 0.00 0.00 0.00 70 1021.0
20260501231327 49 252 0.0 2.0 0.00 0.00 0.00 72 1021.0
20260501225826 49 246 0.0 0.0 0.00 0.00 0.00 69 1021.0
20260501224325 49 240 0.0 2.0 0.00 0.00 0.00 69 1021.0
20260501222825 50 264 1.0 2.0 0.00 0.00 0.00 67 1021.0
20260501221324 51 258 1.0 2.0 0.00 0.00 0.00 68 1021.1
20260501215823 50 258 0.0 2.0 0.00 0.00 0.00 68 1021.1
20260501214322 52 240 1.0 3.0 0.00 0.00 0.00 64 1021.2
20260501212821 51 222 1.0 3.0 0.00 0.00 0.00 65 1021.1
20260501211320 52 210 1.0 3.0 0.00 0.00 0.00 69 1021.1
20260501205819 54 246 1.0 3.0 0.00 0.00 0.00 62 1021.1
20260501204318 54 78 1.0 3.0 0.00 0.00 0.00 62 1021.1
20260501202817 55 300 1.0 2.0 0.00 0.00 0.00 62 1021.1
20260501201317 55 246 1.0 3.0 0.00 0.00 0.00 60 1021.0